SCP
0 0 0 0 0 0 0 0 0 1 1 1 1 1 1 1 1 1 2 1 1 0 0 0 0 0 0 0 0 0 0 0 0 0 0 0 0 0 0 0 0 0 0
0 0 1 1 1 1 1 1 1 2 2 1 2 2 2 1 1 1 1 1 0 0 0 0 0 0 0 0 0 0 0 0 0 0 0 0 0 0 0 0 0 0 0
0 1 1 1 1 0 1 1 1 2 2 2 2 3 3 3 2 1 1 0 0 0 0 0 0 0 0 0 0 0 0 0 0 0 0 0 0 0 0 0 0 0 0
0 0 0 1 1 1 1 1 1 2 2 1 2 2 2 2 1 1 1 0 0 0 0 0 0 0 0 0 0 0 0 0 0 0 0 0 0 0 0 0 0 0 0
0 0 0 0 0 1 2 1 1 1 2 2 2 2 2 2 2 2 1 0 0 0 0 0 0 0 0 0 0 0 0 0 0 0 0 0 0 0 0 0 0 0 0
0 1 1 1 1 1 1 2 2 2 2 2 2 1 3 4 2 1 0 0 0 0 0 0 0 0 0 0 0 0 0 0 0 0 0 0 0 0 0 0 0 0 0
0 1 1 1 1 1 1 2 2 2 2 2 3 3 3 2 2 1 0 0 0 0 0 0 0 0 0 0 0 0 0 0 0 0 0 0 0 0 0 0 0 0 0
0 0 1 1 1 1 1 2 2 2 1 1 2 2 1 1 0 0 0 0 0 0 0 0 0 0 0 0 0 0 0 0 0 0 0 0 0 0 0 0 0 0 0
0 1 1 1 1 2 2 2 1 1 1 1 1 1 0 0 0 0 0 0 0 0 0 0 0 0 0 0 0 0 0 0 0 0 0 0 0 0 0 0 0 0 0
0 0 1 1 1 1 1 1 1 1 1 1 0 0 0 0 0 0 0 0 0 0 0 0 0 0 0 0 0 0 0 0 0 0 0 0 0 0 0 0 0 0 0
0 0 1 1 1 1 0 1 1 1 0 0 0 0 0 0 0 0 0 0 0 0 0 0 0 0 0 0 0 0 0 0 0 0 0 0 0 0 0 0 0 0 0
0 0 0 1 1 1 0 0 0 0 0 0 0 0 0 0 0 0 0 0 0 0 0 0 0 0 0 0 0 0 0 0 0 0 0 0 0 0 0 0 0 0 0
1 0 1 1 1 1 0 0 0 0 0 0 0 0 0 0 0 0 0 0 0 0 0 0 0 0 0 0 0 0 0 0 0 0 0 0 0 0 0 0 0 0 0
1 0 1 0 0 1 1 0 0 0 0 0 0 0 0 0 0 0 0 0 0 0 0 0 0 0 0 0 0 0 0 0 0 0 0 0 0 0 0 0 0 0 0
0 1 0 0 0 0 1 0 0 0 0 0 0 0 0 0 0 0 0 0 0 0 0 0 0 0 0 0 0 0 0 0 0 0 0 0 0 0 0 0 0 0 0
0 1 1 0 0 0 0 0 0 0 0 0 0 0 0 0 0 0 0 0 0 0 0 0 0 0 0 0 0 0 0 0 0 0 0 0 0 0 0 0 0 0 0
0 1 1 1 1 1 1 0 0 0 0 0 0 0 0 0 0 0 0 0 0 0 0 0 0 0 0 0 0 0 0 0 0 0 0 0 0 0 0 0 0 0 0
0 0 1 1 1 1 1 0 0 0 0 0 0 0 0 0 0 0 0 0 0 0 0 0 0 0 0 0 0 0 0 0 0 0 0 0 0 0 0 0 0 0 0
1 1 1 2 2 2 1 0 0 0 0 0 0 0 0 0 0 0 0 0 0 0 0 0 0 0 0 0 0 0 0 0 0 0 0 0 0 0 0 0 0 0 0
1 1 1 1 3 2 1 0 0 0 0 0 0 0 0 0 0 0 0 0 0 0 0 0 0 0 0 0 0 0 0 0 0 0 0 0 0 0 0 0 0 0 0
1 1 0 2 2 1 1 0 0 0 0 0 0 0 0 0 0 0 0 0 0 0 0 0 0 0 0 0 0 0 0 0 0 0 0 0 0 0 0 0 0 0 0
0 -0 1 2 1 1 1 0 0 0 0 0 0 0 0 0 0 0 0 0 0 0 0 0 0 0 0 0 0 0 0 0 0 0 0 0 0 0 0 0 0 0 0
0 0 1 1 1 1 1 1 0 0 0 0 0 0 0 0 0 0 0 0 0 0 0 0 0 0 0 0 0 0 0 0 0 0 0 0 0 0 0 0 0 0 0
-0 0 1 1 1 1 1 0 0 0 0 0 0 0 0 0 0 0 0 0 0 0 0 0 0 0 0 0 0 0 0 0 0 0 0 0 0 0 0 0 0 0 0
0 1 0 0 0 0 0 0 0 0 0 0 0 0 0 0 0 0 0 0 0 0 0 0 0 0 0 0 0 0 0 0 0 0 0 0 0 0 0 0 0 0 0
0 0 0 0 0 0 0 0 0 0 0 0 0 0 0 0 0 0 0 0 0 0 0 0 0 0 0 0 0 0 0 0 0 0 0 0 0 0 0 0 0 0 0
Wind_Speed_500mb
43 45 47 49 48 47 48 49 44 43 40 37 32 30 31 26 26 21 38 36 26 20 24 16 33 37 20 26 35 28 32 35 34 38 40 40 38 26 23 25 34 30 30
38 39 45 47 47 48 46 46 46 46 44 34 33 30 29 27 23 24 33 22 19 24 24 30 25 18 22 23 26 30 33 32 29 33 36 35 34 8 21 38 26 32 29
40 40 41 41 41 43 43 41 44 43 45 36 31 32 29 28 25 23 17 18 22 23 26 19 22 25 25 21 30 26 28 29 30 26 30 39 32 46 40 38 33 34 35
30 40 38 39 38 36 34 33 33 38 39 37 33 32 32 27 22 21 18 26 20 16 15 18 22 30 28 27 22 21 26 24 29 27 26 29 35 42 49 34 38 39 36
24 31 33 32 33 31 31 30 33 36 33 36 30 31 26 23 22 22 29 19 17 18 16 21 26 29 25 22 27 20 20 21 24 26 28 29 29 31 39 49 46 43 39
15 19 23 27 30 30 27 27 29 29 31 32 33 31 27 29 24 21 14 11 9 12 22 21 25 26 22 15 18 18 17 20 21 20 23 27 32 37 41 47 48 50 47
16 20 27 21 26 32 30 27 29 30 31 33 32 38 39 30 25 19 15 16 11 10 22 27 23 17 18 18 16 18 19 17 19 23 27 28 33 36 41 43 47 53 53
22 23 29 23 27 33 32 31 30 36 36 36 35 31 28 21 19 19 15 9 9 12 27 23 21 18 17 18 18 20 20 21 24 29 34 40 31 37 42 43 45 55 59
18 21 26 26 31 35 35 32 31 27 29 28 28 26 25 24 23 18 12 14 17 12 20 20 14 14 16 18 22 23 24 27 28 34 37 37 43 43 47 47 47 50 52
14 19 24 28 32 33 33 32 31 29 28 28 26 26 27 26 20 14 12 18 18 19 13 11 14 17 20 22 24 25 25 29 38 41 40 52 44 50 51 55 47 48 47
8 20 26 31 35 35 32 34 33 32 32 30 29 28 26 22 15 15 15 14 14 11 11 14 18 21 24 26 28 29 32 33 38 42 48 44 48 47 51 54 44 50 42
9 20 30 35 40 38 38 38 37 35 35 34 33 29 24 19 15 12 12 12 10 12 14 19 22 25 26 29 29 30 33 36 40 45 45 42 49 56 56 58 62 49 49
10 21 32 36 42 41 41 41 40 38 37 33 29 27 24 18 13 10 10 11 11 15 18 21 25 25 27 28 28 32 34 38 42 48 45 54 55 59 48 60 56 46 46
9 24 32 36 44 44 44 42 38 34 33 32 30 27 22 16 12 10 11 11 13 17 20 22 24 26 28 28 31 32 33 41 46 50 48 54 59 54 47 59 47 45 45
19 28 34 41 46 45 42 38 37 38 34 29 26 21 18 14 11 11 11 13 14 18 21 24 26 27 28 29 31 35 43 45 45 46 51 53 44 54 62 54 45 41 43
25 28 35 40 41 42 41 41 41 38 36 31 26 22 18 14 13 12 13 13 16 18 22 24 26 27 29 37 48 52 50 45 39 48 57 61 58 46 45 55 39 39 45
38 26 38 43 42 43 43 45 41 38 34 30 25 22 17 14 14 12 12 13 16 20 22 24 26 30 33 40 47 54 52 38 41 51 57 54 49 56 58 51 41 42 43
29 18 31 38 41 43 45 42 39 38 34 29 24 18 16 13 11 10 12 14 18 21 25 25 28 32 35 41 48 50 43 39 44 48 56 56 56 52 59 53 47 43 39
33 25 21 33 40 48 46 44 41 36 34 28 21 18 14 11 9 11 13 17 20 23 25 27 31 34 34 46 48 45 51 41 47 45 51 57 59 52 50 51 54 51 46
27 15 14 28 39 49 45 40 37 35 29 25 21 16 12 9 8 9 15 17 20 23 25 30 32 36 38 44 41 53 40 48 51 60 63 54 45 49 49 46 44 49 44
24 12 12 30 49 49 47 39 35 30 26 23 19 14 9 7 5 9 13 17 19 24 28 31 35 37 32 32 45 48 40 38 53 62 60 52 56 56 60 60 62 60 51
21 6 15 34 42 43 43 36 31 29 24 20 15 10 7 3 6 12 15 16 20 24 30 35 38 34 33 40 45 30 45 61 68 61 57 59 66 72 59 50 51 49 41
19 7 23 35 39 42 41 39 36 27 21 16 12 8 4 3 7 11 15 18 22 28 34 38 40 40 39 39 40 52 66 85 67 46 61 69 65 51 43 34 33 32 32
15 11 30 40 42 40 37 44 39 30 19 13 9 4 1 5 8 12 15 21 26 30 32 41 41 43 44 45 54 75 78 69 71 69 60 49 39 41 38 36 29 27 21
7 23 32 33 41 42 45 35 27 23 19 11 4 0 5 9 12 16 21 25 26 33 36 36 34 42 46 51 67 76 75 72 59 56 44 40 40 36 37 31 28 27 19
17 25 34 43 36 37 38 32 25 17 17 8 4 6 6 12 15 20 23 31 34 34 35 29 25 26 47 58 71 73 60 50 48 42 38 39 41 37 35 30 29 22 17
Wind_Direction_500mb
209 205 205 204 204 205 208 206 209 219 208 212 218 217 220 222 220 215 221 244 252 261 270 258 293 306 318 279 292 303 307 306 308 305 309 308 313 262 280 289 293 293 295
201 192 195 198 203 205 208 210 209 213 217 213 214 217 221 222 216 214 247 242 239 245 276 282 297 284 288 292 291 295 303 303 308 307 311 320 318 232 301 310 311 286 288
187 178 186 201 205 207 209 212 215 211 223 202 207 202 198 196 201 211 227 222 240 269 285 277 276 278 300 302 279 298 296 301 306 307 305 311 308 308 308 306 300 299 292
198 192 204 207 206 207 209 209 209 209 221 206 200 200 196 201 215 216 207 240 262 263 256 274 286 296 292 301 300 296 284 305 303 309 307 299 299 303 309 309 308 307 300
207 205 201 208 207 205 202 198 202 210 200 198 191 197 186 201 188 193 226 212 255 252 264 286 291 297 304 277 294 302 298 301 304 303 307 307 308 305 308 310 312 308 308
197 202 200 194 193 200 198 190 185 181 184 179 183 174 188 186 191 197 199 207 229 276 284 286 297 301 300 304 296 293 307 294 302 308 311 308 311 311 310 308 308 309 311
235 205 195 193 197 185 188 183 175 169 169 171 180 188 201 197 190 203 187 200 228 260 274 296 306 301 282 302 299 300 298 307 295 302 304 308 307 307 304 306 306 305 308
240 217 203 205 194 189 186 180 178 179 178 188 193 197 196 185 183 173 198 203 226 257 272 299 308 310 303 301 297 302 293 292 293 298 312 309 307 306 307 303 300 306 306
259 222 200 199 192 188 183 183 182 179 177 182 183 184 173 176 189 210 222 252 263 266 297 307 300 291 292 296 292 297 290 292 297 299 301 302 297 298 298 299 298 299 303
255 220 206 199 191 186 184 182 182 182 175 174 177 183 191 196 210 234 236 255 259 286 278 281 281 290 293 294 290 295 295 293 295 303 298 306 303 302 298 290 292 294 297
241 214 202 196 190 189 189 185 182 181 179 177 176 190 188 197 219 247 259 273 283 277 278 280 284 289 290 291 289 291 295 296 302 299 303 305 304 303 303 297 296 293 289
254 211 197 193 190 191 190 190 186 183 182 182 185 183 188 205 227 241 253 266 265 262 281 289 290 291 293 292 287 288 293 295 297 300 302 306 306 302 309 299 293 290 287
223 214 197 194 195 195 195 195 191 186 185 181 180 185 197 204 220 233 237 248 261 279 286 290 290 291 289 287 288 291 293 296 297 302 298 305 306 307 307 305 294 293 289
237 219 205 205 198 200 200 196 192 188 185 180 183 190 200 202 209 217 228 245 269 283 290 292 291 288 291 290 291 293 294 297 297 300 299 298 304 306 307 305 299 290 290
255 222 216 208 204 202 197 193 188 186 184 183 182 187 196 197 212 224 234 257 274 285 292 295 294 295 293 299 284 288 297 298 295 296 299 302 302 295 311 306 297 290 296
246 233 221 214 210 202 197 193 188 185 180 181 186 187 188 195 214 227 251 270 280 289 295 295 295 296 298 293 292 297 301 300 291 299 298 300 304 295 296 305 298 295 302
285 219 221 214 209 201 197 194 186 182 178 179 183 189 190 201 216 239 255 277 287 293 299 296 295 298 300 300 299 301 306 302 301 306 309 303 297 293 296 298 299 297 299
308 268 224 211 204 197 193 189 183 178 179 180 182 190 196 202 227 246 276 288 294 298 298 297 302 302 307 302 304 307 316 312 311 309 309 308 302 294 298 299 292 293 290
334 306 228 208 199 193 187 182 181 178 176 177 183 193 199 212 236 270 289 293 300 298 298 306 304 305 306 305 302 315 323 316 316 315 312 305 300 299 299 289 290 293 291
339 315 216 196 189 185 177 179 180 178 179 178 182 188 199 204 243 283 290 296 299 304 305 304 309 311 309 304 306 313 314 318 315 319 313 309 307 303 297 296 286 290 284
338 318 213 187 181 175 175 180 181 177 174 179 176 176 188 215 259 286 300 301 306 303 308 313 314 309 311 315 313 314 319 322 317 316 311 308 306 300 304 291 287 281 281
334 314 170 169 179 180 170 176 171 173 173 176 167 174 185 213 270 294 303 309 308 312 313 315 316 320 323 324 317 317 323 321 320 317 309 301 298 303 308 295 288 282 278
321 263 173 178 172 174 173 168 169 167 170 169 159 170 172 290 300 304 308 328 320 317 319 321 322 321 323 328 331 326 315 312 322 312 300 305 310 314 316 306 294 283 276
309 227 161 171 167 170 170 184 179 166 163 150 156 162 274 297 313 315 322 321 323 319 322 323 322 322 325 325 319 320 322 322 321 320 321 325 330 325 321 321 314 295 275
249 176 167 175 166 169 177 177 160 154 136 137 135 253 306 339 316 319 318 323 321 312 318 322 326 327 329 319 318 324 326 326 330 329 340 338 334 331 331 326 322 309 295
197 188 184 169 163 163 164 160 152 148 115 103 54 276 325 322 326 331 333 328 329 332 339 333 330 341 323 322 325 326 334 341 342 348 343 341 342 338 333 331 327 327 311
Wind_Speed_850mb
43 45 47 49 48 47 48 49 44 43 40 37 32 30 31 26 26 21 38 36 26 20 24 16 33 37 20 26 35 28 32 35 34 38 40 40 38 26 23 25 34 30 30
38 39 45 47 47 48 46 46 46 46 44 34 33 30 29 27 23 24 33 22 19 24 24 30 25 18 22 23 26 30 33 32 29 33 36 35 34 8 21 38 26 32 29
40 40 41 41 41 43 43 41 44 43 45 36 31 32 29 28 25 23 17 18 22 23 26 19 22 25 25 21 30 26 28 29 30 26 30 39 32 46 40 38 33 34 35
30 40 38 39 38 36 34 33 33 38 39 37 33 32 32 27 22 21 18 26 20 16 15 18 22 30 28 27 22 21 26 24 29 27 26 29 35 42 49 34 38 39 36
24 31 33 32 33 31 31 30 33 36 33 36 30 31 26 23 22 22 29 19 17 18 16 21 26 29 25 22 27 20 20 21 24 26 28 29 29 31 39 49 46 43 39
15 19 23 27 30 30 27 27 29 29 31 32 33 31 27 29 24 21 14 11 9 12 22 21 25 26 22 15 18 18 17 20 21 20 23 27 32 37 41 47 48 50 47
16 20 27 21 26 32 30 27 29 30 31 33 32 38 39 30 25 19 15 16 11 10 22 27 23 17 18 18 16 18 19 17 19 23 27 28 33 36 41 43 47 53 53
22 23 29 23 27 33 32 31 30 36 36 36 35 31 28 21 19 19 15 9 9 12 27 23 21 18 17 18 18 20 20 21 24 29 34 40 31 37 42 43 45 55 59
18 21 26 26 31 35 35 32 31 27 29 28 28 26 25 24 23 18 12 14 17 12 20 20 14 14 16 18 22 23 24 27 28 34 37 37 43 43 47 47 47 50 52
14 19 24 28 32 33 33 32 31 29 28 28 26 26 27 26 20 14 12 18 18 19 13 11 14 17 20 22 24 25 25 29 38 41 40 52 44 50 51 55 47 48 47
8 20 26 31 35 35 32 34 33 32 32 30 29 28 26 22 15 15 15 14 14 11 11 14 18 21 24 26 28 29 32 33 38 42 48 44 48 47 51 54 44 50 42
9 20 30 35 40 38 38 38 37 35 35 34 33 29 24 19 15 12 12 12 10 12 14 19 22 25 26 29 29 30 33 36 40 45 45 42 49 56 56 58 62 49 49
10 21 32 36 42 41 41 41 40 38 37 33 29 27 24 18 13 10 10 11 11 15 18 21 25 25 27 28 28 32 34 38 42 48 45 54 55 59 48 60 56 46 46
9 24 32 36 44 44 44 42 38 34 33 32 30 27 22 16 12 10 11 11 13 17 20 22 24 26 28 28 31 32 33 41 46 50 48 54 59 54 47 59 47 45 45
19 28 34 41 46 45 42 38 37 38 34 29 26 21 18 14 11 11 11 13 14 18 21 24 26 27 28 29 31 35 43 45 45 46 51 53 44 54 62 54 45 41 43
25 28 35 40 41 42 41 41 41 38 36 31 26 22 18 14 13 12 13 13 16 18 22 24 26 27 29 37 48 52 50 45 39 48 57 61 58 46 45 55 39 39 45
38 26 38 43 42 43 43 45 41 38 34 30 25 22 17 14 14 12 12 13 16 20 22 24 26 30 33 40 47 54 52 38 41 51 57 54 49 56 58 51 41 42 43
29 18 31 38 41 43 45 42 39 38 34 29 24 18 16 13 11 10 12 14 18 21 25 25 28 32 35 41 48 50 43 39 44 48 56 56 56 52 59 53 47 43 39
33 25 21 33 40 48 46 44 41 36 34 28 21 18 14 11 9 11 13 17 20 23 25 27 31 34 34 46 48 45 51 41 47 45 51 57 59 52 50 51 54 51 46
27 15 14 28 39 49 45 40 37 35 29 25 21 16 12 9 8 9 15 17 20 23 25 30 32 36 38 44 41 53 40 48 51 60 63 54 45 49 49 46 44 49 44
24 12 12 30 49 49 47 39 35 30 26 23 19 14 9 7 5 9 13 17 19 24 28 31 35 37 32 32 45 48 40 38 53 62 60 52 56 56 60 60 62 60 51
21 6 15 34 42 43 43 36 31 29 24 20 15 10 7 3 6 12 15 16 20 24 30 35 38 34 33 40 45 30 45 61 68 61 57 59 66 72 59 50 51 49 41
19 7 23 35 39 42 41 39 36 27 21 16 12 8 4 3 7 11 15 18 22 28 34 38 40 40 39 39 40 52 66 85 67 46 61 69 65 51 43 34 33 32 32
15 11 30 40 42 40 37 44 39 30 19 13 9 4 1 5 8 12 15 21 26 30 32 41 41 43 44 45 54 75 78 69 71 69 60 49 39 41 38 36 29 27 21
7 23 32 33 41 42 45 35 27 23 19 11 4 0 5 9 12 16 21 25 26 33 36 36 34 42 46 51 67 76 75 72 59 56 44 40 40 36 37 31 28 27 19
17 25 34 43 36 37 38 32 25 17 17 8 4 6 6 12 15 20 23 31 34 34 35 29 25 26 47 58 71 73 60 50 48 42 38 39 41 37 35 30 29 22 17
Wind_Direction_850mb
209 205 205 204 204 205 208 206 209 219 208 212 218 217 220 222 220 215 221 244 252 261 270 258 293 306 318 279 292 303 307 306 308 305 309 308 313 262 280 289 293 293 295
201 192 195 198 203 205 208 210 209 213 217 213 214 217 221 222 216 214 247 242 239 245 276 282 297 284 288 292 291 295 303 303 308 307 311 320 318 232 301 310 311 286 288
187 178 186 201 205 207 209 212 215 211 223 202 207 202 198 196 201 211 227 222 240 269 285 277 276 278 300 302 279 298 296 301 306 307 305 311 308 308 308 306 300 299 292
198 192 204 207 206 207 209 209 209 209 221 206 200 200 196 201 215 216 207 240 262 263 256 274 286 296 292 301 300 296 284 305 303 309 307 299 299 303 309 309 308 307 300
207 205 201 208 207 205 202 198 202 210 200 198 191 197 186 201 188 193 226 212 255 252 264 286 291 297 304 277 294 302 298 301 304 303 307 307 308 305 308 310 312 308 308
197 202 200 194 193 200 198 190 185 181 184 179 183 174 188 186 191 197 199 207 229 276 284 286 297 301 300 304 296 293 307 294 302 308 311 308 311 311 310 308 308 309 311
235 205 195 193 197 185 188 183 175 169 169 171 180 188 201 197 190 203 187 200 228 260 274 296 306 301 282 302 299 300 298 307 295 302 304 308 307 307 304 306 306 305 308
240 217 203 205 194 189 186 180 178 179 178 188 193 197 196 185 183 173 198 203 226 257 272 299 308 310 303 301 297 302 293 292 293 298 312 309 307 306 307 303 300 306 306
259 222 200 199 192 188 183 183 182 179 177 182 183 184 173 176 189 210 222 252 263 266 297 307 300 291 292 296 292 297 290 292 297 299 301 302 297 298 298 299 298 299 303
255 220 206 199 191 186 184 182 182 182 175 174 177 183 191 196 210 234 236 255 259 286 278 281 281 290 293 294 290 295 295 293 295 303 298 306 303 302 298 290 292 294 297
241 214 202 196 190 189 189 185 182 181 179 177 176 190 188 197 219 247 259 273 283 277 278 280 284 289 290 291 289 291 295 296 302 299 303 305 304 303 303 297 296 293 289
254 211 197 193 190 191 190 190 186 183 182 182 185 183 188 205 227 241 253 266 265 262 281 289 290 291 293 292 287 288 293 295 297 300 302 306 306 302 309 299 293 290 287
223 214 197 194 195 195 195 195 191 186 185 181 180 185 197 204 220 233 237 248 261 279 286 290 290 291 289 287 288 291 293 296 297 302 298 305 306 307 307 305 294 293 289
237 219 205 205 198 200 200 196 192 188 185 180 183 190 200 202 209 217 228 245 269 283 290 292 291 288 291 290 291 293 294 297 297 300 299 298 304 306 307 305 299 290 290
255 222 216 208 204 202 197 193 188 186 184 183 182 187 196 197 212 224 234 257 274 285 292 295 294 295 293 299 284 288 297 298 295 296 299 302 302 295 311 306 297 290 296
246 233 221 214 210 202 197 193 188 185 180 181 186 187 188 195 214 227 251 270 280 289 295 295 295 296 298 293 292 297 301 300 291 299 298 300 304 295 296 305 298 295 302
285 219 221 214 209 201 197 194 186 182 178 179 183 189 190 201 216 239 255 277 287 293 299 296 295 298 300 300 299 301 306 302 301 306 309 303 297 293 296 298 299 297 299
308 268 224 211 204 197 193 189 183 178 179 180 182 190 196 202 227 246 276 288 294 298 298 297 302 302 307 302 304 307 316 312 311 309 309 308 302 294 298 299 292 293 290
334 306 228 208 199 193 187 182 181 178 176 177 183 193 199 212 236 270 289 293 300 298 298 306 304 305 306 305 302 315 323 316 316 315 312 305 300 299 299 289 290 293 291
339 315 216 196 189 185 177 179 180 178 179 178 182 188 199 204 243 283 290 296 299 304 305 304 309 311 309 304 306 313 314 318 315 319 313 309 307 303 297 296 286 290 284
338 318 213 187 181 175 175 180 181 177 174 179 176 176 188 215 259 286 300 301 306 303 308 313 314 309 311 315 313 314 319 322 317 316 311 308 306 300 304 291 287 281 281
334 314 170 169 179 180 170 176 171 173 173 176 167 174 185 213 270 294 303 309 308 312 313 315 316 320 323 324 317 317 323 321 320 317 309 301 298 303 308 295 288 282 278
321 263 173 178 172 174 173 168 169 167 170 169 159 170 172 290 300 304 308 328 320 317 319 321 322 321 323 328 331 326 315 312 322 312 300 305 310 314 316 306 294 283 276
309 227 161 171 167 170 170 184 179 166 163 150 156 162 274 297 313 315 322 321 323 319 322 323 322 322 325 325 319 320 322 322 321 320 321 325 330 325 321 321 314 295 275
249 176 167 175 166 169 177 177 160 154 136 137 135 253 306 339 316 319 318 323 321 312 318 322 326 327 329 319 318 324 326 326 330 329 340 338 334 331 331 326 322 309 295
197 188 184 169 163 163 164 160 152 148 115 103 54 276 325 322 326 331 333 328 329 332 339 333 330 341 323 322 325 326 334 341 342 348 343 341 342 338 333 331 327 327 311